User: anonymous   Login
Location: *
(33.8649°S, 62.1526°E)
Time: 23:20:40
(UTC+00:00)
Language:

Cosmos 44 Rocket - Orbit

View from above orbital plane
View from above orbital plane
View from above satellite
View from above satellite

Ground track
Ground track

The orbit data is extracted from the following two-line orbital elements,

1 00877U 64053B   21210.41633269 -.00000120  00000-0  97362-6 0  9997
2 00877  65.0759 219.6296 0081680 246.1767 113.0754 14.59435406 20876
Epoch (UTC): 29 July 2021 09:59:31
Eccentricity: 0.0081680
inclination: 65.0759°
perigee height: 637 km
apogee height: 753 km
right ascension of ascending node: 219.6296°
argument of perigee: 246.1767°
revolutions per day: 14.59435406
mean anomaly at epoch: 113.0754°
orbit number at epoch: 2087

The dashed part of the orbit path shows where the satellite is in the earth's shadow,  

DLR